Time,TemperatureF,DewpointF,PressureIn,WindDirection,WindDirectionDegrees,WindSpeedMPH,WindSpeedGustMPH,Humidity,HourlyPrecipIn,Conditions,Clouds,dailyrainin,SoftwareType,DateUTC
2013-06-19 00:01:00,57.0,46.0,29.99,North,11,1.0,-999.0,66,-99.99,,,-99.99,,2013-06-19 07:01:00,
2013-06-19 00:11:00,57.0,46.0,29.99,North,11,1.0,-999.0,66,-99.99,,,-99.99,,2013-06-19 07:11:00,
2013-06-19 00:22:00,57.0,46.0,30.00,NNW,343,1.0,-999.0,66,-99.99,,,-99.99,,2013-06-19 07:22:00,
2013-06-19 00:33:00,56.0,45.0,30.00,North,355,1.0,-999.0,67,-99.99,,,-99.99,,2013-06-19 07:33:00,
2013-06-19 00:43:00,56.0,46.0,30.01,NNW,341,0.0,-999.0,68,-99.99,,,-99.99,,2013-06-19 07:43:00,
2013-06-19 00:53:00,56.0,46.0,30.01,NNW,341,0.0,-999.0,68,-99.99,,,-99.99,,2013-06-19 07:53:00,
2013-06-19 01:01:00,55.0,45.0,30.01,NNW,327,0.0,-999.0,69,-99.99,,,-99.99,,2013-06-19 08:01:00,
2013-06-19 01:11:00,55.0,45.0,30.01,NNW,327,0.0,-999.0,69,-99.99,,,-99.99,,2013-06-19 08:11:00,
2013-06-19 01:22:00,55.0,45.0,30.01,NNW,327,0.0,-999.0,69,-99.99,,,-99.99,,2013-06-19 08:22:00,
2013-06-19 01:33:00,54.0,45.0,30.01,NNW,327,0.0,-999.0,71,-99.99,,,-99.99,,2013-06-19 08:33:00,
2013-06-19 01:42:00,54.0,45.0,30.01,NNW,327,0.0,-999.0,71,-99.99,,,-99.99,,2013-06-19 08:42:00,
2013-06-19 01:53:00,54.0,45.0,30.01,NNW,327,0.0,-999.0,71,-99.99,,,-99.99,,2013-06-19 08:53:00,
2013-06-19 02:02:00,52.0,44.0,30.01,NNW,327,0.0,-999.0,73,-99.99,,,-99.99,,2013-06-19 09:02:00,
2013-06-19 02:11:00,52.0,44.0,30.01,NNW,327,0.0,-999.0,73,-99.99,,,-99.99,,2013-06-19 09:11:00,
2013-06-19 02:22:00,52.0,44.0,30.01,NNW,327,0.0,-999.0,74,-99.99,,,-99.99,,2013-06-19 09:22:00,
2013-06-19 02:34:00,51.0,43.0,30.01,NNW,327,0.0,-999.0,75,-99.99,,,-99.99,,2013-06-19 09:34:00,
2013-06-19 02:43:00,50.0,43.0,30.01,NNW,327,0.0,-999.0,77,-99.99,,,-99.99,,2013-06-19 09:43:00,
2013-06-19 02:53:00,50.0,43.0,30.01,NNW,327,0.0,-999.0,77,-99.99,,,-99.99,,2013-06-19 09:53:00,
2013-06-19 03:01:00,50.0,43.0,30.01,NNW,327,0.0,-999.0,78,-99.99,,,-99.99,,2013-06-19 10:01:00,
2013-06-19 03:11:00,50.0,43.0,30.01,NNW,327,0.0,-999.0,78,-99.99,,,-99.99,,2013-06-19 10:11:00,
2013-06-19 03:22:00,49.0,43.0,30.01,NNW,327,0.0,-999.0,79,-99.99,,,-99.99,,2013-06-19 10:22:00,
2013-06-19 03:33:00,49.0,43.0,30.01,NNW,327,0.0,-999.0,81,-99.99,,,-99.99,,2013-06-19 10:33:00,
2013-06-19 03:42:00,48.0,43.0,30.01,NNW,327,0.0,-999.0,82,-99.99,,,-99.99,,2013-06-19 10:42:00,
2013-06-19 03:52:00,48.0,43.0,30.01,NNW,327,0.0,-999.0,82,-99.99,,,-99.99,,2013-06-19 10:52:00,
2013-06-19 04:02:00,48.0,43.0,30.01,NNW,327,0.0,-999.0,83,-99.99,,,-99.99,,2013-06-19 11:02:00,
2013-06-19 04:11:00,48.0,43.0,30.01,NNW,327,0.0,-999.0,83,-99.99,,,-99.99,,2013-06-19 11:11:00,
2013-06-19 04:22:00,49.0,44.0,30.01,NNW,327,0.0,-999.0,83,-99.99,,,-99.99,,2013-06-19 11:22:00,
2013-06-19 04:33:00,50.0,44.0,30.01,NNW,327,0.0,-999.0,81,-99.99,,,-99.99,,2013-06-19 11:33:00,
2013-06-19 04:42:00,50.0,44.0,30.01,NNW,327,0.0,-999.0,79,-99.99,,,-99.99,,2013-06-19 11:42:00,
2013-06-19 04:54:00,50.0,44.0,30.01,NNW,327,0.0,-999.0,79,-99.99,,,-99.99,,2013-06-19 11:54:00,
2013-06-19 05:01:00,50.0,44.0,30.01,NNW,327,0.0,-999.0,79,-99.99,,,-99.99,,2013-06-19 12:01:00,
2013-06-19 05:11:00,50.0,44.0,30.01,NNW,327,0.0,-999.0,79,-99.99,,,-99.99,,2013-06-19 12:11:00,
2013-06-19 05:22:00,50.0,44.0,30.01,NNW,327,0.0,-999.0,79,-99.99,,,-99.99,,2013-06-19 12:22:00,
2013-06-19 05:34:00,50.0,44.0,30.01,NNW,327,0.0,-999.0,80,-99.99,,,-99.99,,2013-06-19 12:34:00,
2013-06-19 05:44:00,49.0,43.0,30.01,NNW,327,0.0,-999.0,80,-99.99,,,-99.99,,2013-06-19 12:44:00,
2013-06-19 05:52:00,49.0,43.0,30.01,NNW,327,0.0,-999.0,80,-99.99,,,-99.99,,2013-06-19 12:52:00,
2013-06-19 06:02:00,49.0,44.0,30.01,NNW,327,0.0,-999.0,83,-99.99,,,-99.99,,2013-06-19 13:02:00,
2013-06-19 06:11:00,49.0,44.0,30.01,NNW,327,0.0,-999.0,83,-99.99,,,-99.99,,2013-06-19 13:11:00,
2013-06-19 06:22:00,48.0,43.0,30.02,NNW,327,0.0,-999.0,84,-99.99,,,-99.99,,2013-06-19 13:22:00,
2013-06-19 06:33:00,48.0,43.0,30.02,NNW,327,0.0,-999.0,84,-99.99,,,-99.99,,2013-06-19 13:33:00,
2013-06-19 06:42:00,47.0,43.0,30.03,NNW,327,0.0,-999.0,85,-99.99,,,-99.99,,2013-06-19 13:42:00,
2013-06-19 06:53:00,47.0,43.0,30.03,NNW,327,0.0,-999.0,85,-99.99,,,-99.99,,2013-06-19 13:53:00,
2013-06-19 07:02:00,48.0,44.0,30.02,NNW,327,0.0,-999.0,85,-99.99,,,-99.99,,2013-06-19 14:02:00,
2013-06-19 07:11:00,48.0,44.0,30.02,NNW,327,0.0,-999.0,85,-99.99,,,-99.99,,2013-06-19 14:11:00,
2013-06-19 07:22:00,48.0,44.0,30.03,NNW,327,0.0,-999.0,85,-99.99,,,-99.99,,2013-06-19 14:22:00,
2013-06-19 07:33:00,50.0,45.0,30.03,NNW,327,0.0,-999.0,83,-99.99,,,-99.99,,2013-06-19 14:33:00,
2013-06-19 07:43:00,51.0,45.0,30.04,NNW,327,0.0,-999.0,80,-99.99,,,-99.99,,2013-06-19 14:43:00,
2013-06-19 07:52:00,51.0,45.0,30.04,NNW,327,0.0,-999.0,80,-99.99,,,-99.99,,2013-06-19 14:52:00,
2013-06-19 08:01:00,52.0,45.0,30.04,NW,309,0.0,-999.0,78,-99.99,,,-99.99,,2013-06-19 15:01:00,
2013-06-19 08:11:00,52.0,45.0,30.04,NW,309,0.0,-999.0,78,-99.99,,,-99.99,,2013-06-19 15:11:00,
2013-06-19 08:22:00,54.0,46.0,30.04,NW,309,0.0,-999.0,75,-99.99,,,-99.99,,2013-06-19 15:22:00,
2013-06-19 08:33:00,55.0,47.0,30.04,NW,309,0.0,-999.0,73,-99.99,,,-99.99,,2013-06-19 15:33:00,
2013-06-19 08:42:00,57.0,48.0,30.04,NW,319,0.0,-999.0,72,-99.99,,,-99.99,,2013-06-19 15:42:00,
2013-06-19 08:52:00,57.0,48.0,30.04,NW,319,0.0,-999.0,72,-99.99,,,-99.99,,2013-06-19 15:52:00,
2013-06-19 09:01:00,58.0,48.0,30.04,NW,319,0.0,-999.0,70,-99.99,,,-99.99,,2013-06-19 16:01:00,
2013-06-19 09:11:00,58.0,48.0,30.04,NW,319,0.0,-999.0,70,-99.99,,,-99.99,,2013-06-19 16:11:00,
2013-06-19 09:22:00,59.0,48.0,30.04,NNW,329,1.0,-999.0,66,-99.99,,,-99.99,,2013-06-19 16:22:00,
2013-06-19 09:33:00,61.0,47.0,30.04,ENE,57,1.0,-999.0,60,-99.99,,,-99.99,,2013-06-19 16:33:00,
2013-06-19 09:43:00,63.0,47.0,30.04,NW,312,2.0,-999.0,56,-99.99,,,-99.99,,2013-06-19 16:43:00,
2013-06-19 09:52:00,63.0,47.0,30.04,NW,312,2.0,-999.0,56,-99.99,,,-99.99,,2013-06-19 16:52:00,
2013-06-19 10:02:00,65.0,47.0,30.04,NNW,338,1.0,-999.0,53,-99.99,,,-99.99,,2013-06-19 17:02:00,
2013-06-19 10:11:00,65.0,47.0,30.04,NNW,338,1.0,-999.0,53,-99.99,,,-99.99,,2013-06-19 17:11:00,
2013-06-19 10:22:00,66.0,48.0,30.03,NNE,13,1.0,-999.0,52,-99.99,,,-99.99,,2013-06-19 17:22:00,
2013-06-19 10:34:00,68.0,48.0,30.03,WNW,284,1.0,-999.0,49,-99.99,,,-99.99,,2013-06-19 17:34:00,
2013-06-19 10:43:00,68.0,46.0,30.03,NNW,341,2.0,-999.0,46,-99.99,,,-99.99,,2013-06-19 17:43:00,
2013-06-19 10:53:00,68.0,46.0,30.03,NNW,341,2.0,-999.0,46,-99.99,,,-99.99,,2013-06-19 17:53:00,
2013-06-19 11:01:00,69.0,47.0,30.03,WNW,288,1.0,-999.0,45,-99.99,,,-99.99,,2013-06-19 18:01:00,
2013-06-19 11:11:00,69.0,47.0,30.03,WNW,288,1.0,-999.0,45,-99.99,,,-99.99,,2013-06-19 18:11:00,
2013-06-19 11:23:00,70.0,46.0,30.03,NW,305,1.0,-999.0,42,-99.99,,,-99.99,,2013-06-19 18:23:00,
2013-06-19 11:33:00,71.0,46.0,30.03,NW,313,1.0,-999.0,41,-99.99,,,-99.99,,2013-06-19 18:33:00,
2013-06-19 11:43:00,71.0,46.0,30.03,NNW,342,1.0,-999.0,41,-99.99,,,-99.99,,2013-06-19 18:43:00,
2013-06-19 11:52:00,71.0,46.0,30.03,NNW,342,1.0,-999.0,41,-99.99,,,-99.99,,2013-06-19 18:52:00,
2013-06-19 12:01:00,73.0,47.0,30.03,SSW,207,1.0,-999.0,39,-99.99,,,-99.99,,2013-06-19 19:01:00,
2013-06-19 12:11:00,74.0,47.0,30.03,North,351,1.0,-999.0,38,-99.99,,,-99.99,,2013-06-19 19:11:00,
2013-06-19 12:22:00,74.0,47.0,30.03,North,351,1.0,-999.0,38,-99.99,,,-99.99,,2013-06-19 19:22:00,
2013-06-19 12:32:00,74.0,46.0,30.03,SE,138,1.0,-999.0,37,-99.99,,,-99.99,,2013-06-19 19:32:00,
2013-06-19 12:43:00,75.0,45.0,30.02,NNW,348,0.0,-999.0,34,-99.99,,,-99.99,,2013-06-19 19:43:00,
2013-06-19 12:52:00,75.0,45.0,30.02,NNW,348,0.0,-999.0,34,-99.99,,,-99.99,,2013-06-19 19:52:00,
2013-06-19 13:02:00,76.0,44.0,30.02,NW,316,1.0,-999.0,32,-99.99,,,-99.99,,2013-06-19 20:02:00,
2013-06-19 13:11:00,76.0,44.0,30.02,NW,316,1.0,-999.0,32,-99.99,,,-99.99,,2013-06-19 20:11:00,
2013-06-19 13:22:00,78.0,45.0,30.01,NW,319,1.0,-999.0,31,-99.99,,,-99.99,,2013-06-19 20:22:00,
2013-06-19 13:33:00,77.0,39.0,30.01,NNW,338,1.0,-999.0,26,-99.99,,,-99.99,,2013-06-19 20:33:00,
2013-06-19 13:42:00,78.0,42.0,30.01,NW,312,1.0,-999.0,28,-99.99,,,-99.99,,2013-06-19 20:42:00,
2013-06-19 13:52:00,78.0,42.0,30.01,NW,312,1.0,-999.0,28,-99.99,,,-99.99,,2013-06-19 20:52:00,
2013-06-19 14:02:00,79.0,42.0,30.00,NNW,332,1.0,-999.0,27,-99.99,,,-99.99,,2013-06-19 21:02:00,
2013-06-19 14:11:00,79.0,42.0,30.00,NNW,332,1.0,-999.0,27,-99.99,,,-99.99,,2013-06-19 21:11:00,
2013-06-19 14:22:00,78.0,42.0,29.99,NNW,327,1.0,-999.0,28,-99.99,,,-99.99,,2013-06-19 21:22:00,
2013-06-19 14:33:00,79.0,44.0,29.99,NNW,327,2.0,-999.0,29,-99.99,,,-99.99,,2013-06-19 21:33:00,
2013-06-19 14:44:00,79.0,48.0,29.98,NNE,24,1.0,-999.0,34,-99.99,,,-99.99,,2013-06-19 21:44:00,
2013-06-19 14:52:00,79.0,48.0,29.98,NNE,24,1.0,-999.0,34,-99.99,,,-99.99,,2013-06-19 21:52:00,
2013-06-19 15:01:00,80.0,49.0,29.99,NE,35,1.0,-999.0,34,-99.99,,,-99.99,,2013-06-19 22:01:00,
2013-06-19 15:11:00,80.0,49.0,29.99,NE,35,1.0,-999.0,34,-99.99,,,-99.99,,2013-06-19 22:11:00,
2013-06-19 15:22:00,80.0,49.0,29.98,North,360,1.0,-999.0,34,-99.99,,,-99.99,,2013-06-19 22:22:00,
2013-06-19 15:34:00,80.0,49.0,29.98,North,360,1.0,-999.0,34,-99.99,,,-99.99,,2013-06-19 22:34:00,
2013-06-19 15:42:00,81.0,51.0,29.98,South,187,1.0,-999.0,35,-99.99,,,-99.99,,2013-06-19 22:42:00,
2013-06-19 15:53:00,81.0,51.0,29.98,South,187,1.0,-999.0,35,-99.99,,,-99.99,,2013-06-19 22:53:00,
2013-06-19 16:02:00,81.0,51.0,29.98,East,83,1.0,-999.0,35,-99.99,,,-99.99,,2013-06-19 23:02:00,
2013-06-19 16:11:00,81.0,51.0,29.98,SSW,204,1.0,-999.0,35,-99.99,,,-99.99,,2013-06-19 23:11:00,
2013-06-19 16:22:00,81.0,51.0,29.98,SSW,204,1.0,-999.0,35,-99.99,,,-99.99,,2013-06-19 23:22:00,
2013-06-19 16:33:00,81.0,52.0,29.97,ESE,113,2.0,-999.0,36,-99.99,,,-99.99,,2013-06-19 23:33:00,
2013-06-19 16:43:00,81.0,52.0,29.97,SE,145,1.0,-999.0,36,-99.99,,,-99.99,,2013-06-19 23:43:00,
2013-06-19 16:52:00,81.0,52.0,29.97,SE,145,1.0,-999.0,36,-99.99,,,-99.99,,2013-06-19 23:52:00,
2013-06-19 17:01:00,82.0,52.0,29.97,NE,38,1.0,-999.0,36,-99.99,,,-99.99,,2013-06-20 00:01:00,
2013-06-19 17:11:00,82.0,52.0,29.97,NE,38,1.0,-999.0,36,-99.99,,,-99.99,,2013-06-20 00:11:00,
2013-06-19 17:22:00,81.0,51.0,29.97,WSW,243,1.0,-999.0,35,-99.99,,,-99.99,,2013-06-20 00:22:00,
2013-06-19 17:33:00,81.0,52.0,29.97,NNW,336,0.0,-999.0,36,-99.99,,,-99.99,,2013-06-20 00:33:00,
2013-06-19 17:43:00,79.0,52.0,29.97,SSE,159,0.0,-999.0,39,-99.99,,,-99.99,,2013-06-20 00:43:00,
2013-06-19 17:52:00,79.0,52.0,29.97,SSE,159,0.0,-999.0,39,-99.99,,,-99.99,,2013-06-20 00:52:00,
2013-06-19 18:01:00,79.0,50.0,29.97,South,178,1.0,-999.0,37,-99.99,,,-99.99,,2013-06-20 01:01:00,
2013-06-19 18:11:00,79.0,51.0,29.96,SSE,148,0.0,-999.0,38,-99.99,,,-99.99,,2013-06-20 01:11:00,
2013-06-19 18:22:00,79.0,51.0,29.96,SSE,148,0.0,-999.0,38,-99.99,,,-99.99,,2013-06-20 01:22:00,
2013-06-19 18:33:00,79.0,51.0,29.96,SSE,148,0.0,-999.0,38,-99.99,,,-99.99,,2013-06-20 01:33:00,
2013-06-19 18:44:00,79.0,52.0,29.97,ESE,105,0.0,-999.0,39,-99.99,,,-99.99,,2013-06-20 01:44:00,
2013-06-19 18:52:00,79.0,52.0,29.97,ESE,105,0.0,-999.0,39,-99.99,,,-99.99,,2013-06-20 01:52:00,
2013-06-19 19:02:00,79.0,53.0,29.97,NNW,330,0.0,-999.0,40,-99.99,,,-99.99,,2013-06-20 02:02:00,
2013-06-19 19:11:00,78.0,52.0,29.97,SE,138,0.0,-999.0,41,-99.99,,,-99.99,,2013-06-20 02:11:00,
2013-06-19 19:23:00,78.0,52.0,29.97,SE,138,0.0,-999.0,41,-99.99,,,-99.99,,2013-06-20 02:23:00,
2013-06-19 19:33:00,75.0,51.0,29.98,North,350,0.0,-999.0,43,-99.99,,,-99.99,,2013-06-20 02:33:00,
2013-06-19 19:43:00,73.0,52.0,29.98,SSE,151,0.0,-999.0,47,-99.99,,,-99.99,,2013-06-20 02:43:00,
2013-06-19 19:52:00,73.0,52.0,29.98,SSE,151,0.0,-999.0,47,-99.99,,,-99.99,,2013-06-20 02:52:00,
2013-06-19 20:02:00,72.0,52.0,29.98,SE,137,0.0,-999.0,49,-99.99,,,-99.99,,2013-06-20 03:02:00,
2013-06-19 20:11:00,72.0,52.0,29.98,SE,137,0.0,-999.0,49,-99.99,,,-99.99,,2013-06-20 03:11:00,
2013-06-19 20:22:00,70.0,52.0,29.98,North,5,0.0,-999.0,52,-99.99,,,-99.99,,2013-06-20 03:22:00,
2013-06-19 20:33:00,69.0,52.0,29.98,North,360,0.0,-999.0,55,-99.99,,,-99.99,,2013-06-20 03:33:00,
2013-06-19 20:43:00,68.0,52.0,29.98,North,360,0.0,-999.0,56,-99.99,,,-99.99,,2013-06-20 03:43:00,
2013-06-19 20:53:00,68.0,52.0,29.98,North,360,0.0,-999.0,56,-99.99,,,-99.99,,2013-06-20 03:53:00,
2013-06-19 21:01:00,67.0,52.0,29.99,North,360,0.0,-999.0,58,-99.99,,,-99.99,,2013-06-20 04:01:00,
2013-06-19 21:11:00,67.0,52.0,29.99,North,360,0.0,-999.0,58,-99.99,,,-99.99,,2013-06-20 04:11:00,
2013-06-19 21:22:00,65.0,51.0,29.99,North,360,0.0,-999.0,60,-99.99,,,-99.99,,2013-06-20 04:22:00,
2013-06-19 21:33:00,64.0,47.0,29.99,NW,318,1.0,-999.0,55,-99.99,,,-99.99,,2013-06-20 04:33:00,
2013-06-19 21:43:00,65.0,48.0,30.00,NNW,339,2.0,-999.0,54,-99.99,,,-99.99,,2013-06-20 04:43:00,
2013-06-19 21:53:00,65.0,48.0,30.00,NNW,339,2.0,-999.0,54,-99.99,,,-99.99,,2013-06-20 04:53:00,
2013-06-19 22:01:00,64.0,47.0,30.00,NNW,339,0.0,-999.0,55,-99.99,,,-99.99,,2013-06-20 05:01:00,
2013-06-19 22:11:00,63.0,47.0,30.01,NW,311,0.0,-999.0,55,-99.99,,,-99.99,,2013-06-20 05:11:00,
2013-06-19 22:22:00,63.0,47.0,30.01,NW,311,0.0,-999.0,55,-99.99,,,-99.99,,2013-06-20 05:22:00,
2013-06-19 22:33:00,63.0,47.0,30.00,North,355,2.0,-999.0,56,-99.99,,,-99.99,,2013-06-20 05:33:00,
2013-06-19 22:43:00,62.0,46.0,30.01,NNW,339,2.0,-999.0,56,-99.99,,,-99.99,,2013-06-20 05:43:00,
2013-06-19 22:52:00,62.0,46.0,30.01,NNW,339,2.0,-999.0,56,-99.99,,,-99.99,,2013-06-20 05:52:00,
2013-06-19 23:01:00,62.0,47.0,30.01,NNW,331,1.0,-999.0,57,-99.99,,,-99.99,,2013-06-20 06:01:00,
2013-06-19 23:11:00,62.0,47.0,30.01,NNW,331,1.0,-999.0,57,-99.99,,,-99.99,,2013-06-20 06:11:00,
2013-06-19 23:22:00,61.0,46.0,30.01,NNW,345,1.0,-999.0,58,-99.99,,,-99.99,,2013-06-20 06:22:00,
2013-06-19 23:33:00,61.0,47.0,30.01,WNW,303,1.0,-999.0,59,-99.99,,,-99.99,,2013-06-20 06:33:00,
2013-06-19 23:43:00,60.0,46.0,30.01,NNW,340,2.0,-999.0,60,-99.99,,,-99.99,,2013-06-20 06:43:00,
2013-06-19 23:53:00,60.0,46.0,30.01,NNW,340,2.0,-999.0,60,-99.99,,,-99.99,,2013-06-20 06:53:00,